Location: Newark
(14.1000°N, 87.2167°W)
Time: 11:59:48
(UTC+00:00)

Tiangong - Pass Details

Date: 21 September 2021
Orbit: 382 x 385 km, 41.5° (Epoch: 18 October)

Event Time Altitude Azimuth Distance (km) Brightness Sun altitude
Exits shadow 10:17:45 46° 157° (SSE) 515 1.7 -20.2°
Maximum altitude 10:18:02 48° 137° (SE) 502 1.8 -20.2°
Drops below altitude 10° 10:21:03 10° 61° (ENE) 1,381 4.9 -19.4°
Sets 10:23:09 0° 56° (NE) 2,233 6.0 -18.9°
